Location: Peebles
(55.6412°N, 3.1714°W)
Time: 08:11:26
(UTC+00:00)

COSMOS 2251 DEB - Pass Details

Date: 03 December 2022
Orbit: 738 x 761 km, 74.0° (Epoch: 29 January)

Event Time Altitude Azimuth Distance (km) Brightness Sun altitude
Exits shadow 03:26:38 10° 24° (NNE) 2,233 ? -39.7°
Drops below altitude 10° 03:26:42 10° 24° (NNE) 2,259 ? -39.7°
Sets 03:29:05 0° 28° (NNE) 3,187 ? -39.4°
